Wind_Speed
22 21 21 20 19 18 17 17 16 15 14 14 13 13 13 13 14 15 16 17 17 18 19 19 19 18 18 18 20 21 22 21 19 19 18 17 17 15 14 13 13 12 12 11 9 8 8 8 9 9 9 8 7 7 7 8 9 11 12 14 15 16 17
24 24 24 22 21 20 19 19 18 17 16 16 16 16 15 14 14 15 17 17 18 18 19 19 18 18 18 19 20 22 23 23 21 21 20 20 19 17 16 16 15 15 14 13 12 11 10 10 10 11 10 10 10 9 9 9 11 12 13 15 16 17 18
28 28 28 26 24 23 22 21 20 18 18 18 18 18 17 17 16 16 17 18 19 20 21 21 20 19 19 21 21 23 24 24 23 22 22 22 20 19 19 19 18 17 16 15 14 13 12 12 11 11 11 11 11 10 10 11 12 13 15 16 17 19 20
32 31 30 29 27 25 24 23 21 20 21 21 21 21 20 19 18 17 18 19 20 22 23 23 22 21 21 22 22 23 24 24 23 23 23 24 23 23 22 21 20 19 19 18 16 15 14 13 12 11 10 11 11 12 12 12 13 14 16 17 19 20 21
34 32 31 30 28 26 26 26 24 24 24 24 23 23 23 22 21 20 20 20 21 23 24 25 24 24 23 23 23 24 25 25 23 23 24 26 26 25 24 22 21 21 21 20 18 17 16 15 13 12 11 11 12 12 13 14 15 16 17 18 20 21 22
35 33 32 32 31 29 29 30 28 27 26 26 26 25 25 24 24 23 22 21 21 22 24 27 28 28 27 26 26 25 26 26 25 24 25 26 26 25 25 24 23 23 23 21 20 18 17 16 15 14 13 13 13 13 14 15 16 17 18 19 20 21 22
35 34 34 34 33 32 32 32 31 29 28 27 27 27 27 27 26 26 25 25 23 23 25 29 31 32 30 29 28 28 28 27 25 24 25 26 25 25 26 26 26 25 24 22 21 20 19 18 16 15 15 14 14 14 15 16 18 19 20 21 21 22 22
37 36 36 36 36 35 35 34 33 31 30 29 30 30 29 29 29 29 28 27 26 26 27 30 32 33 32 30 30 30 29 27 25 25 26 26 25 26 27 27 27 26 25 24 22 21 20 19 18 17 16 15 15 15 16 18 19 20 21 22 22 22 22
40 39 38 38 39 38 37 36 35 33 31 31 32 31 30 30 30 31 30 30 30 29 29 30 32 33 33 32 31 30 29 28 27 26 27 27 26 27 28 28 28 27 26 25 23 22 21 21 20 19 18 17 16 17 18 19 20 21 22 22 22 22 22
42 40 40 40 41 40 38 37 35 33 33 34 34 33 32 32 32 32 32 33 33 33 31 31 31 32 33 33 32 32 31 30 30 30 29 29 28 28 29 29 29 28 27 26 25 24 23 22 21 21 20 19 18 18 19 19 20 21 22 23 22 22 21
43 42 42 42 42 41 39 38 36 36 36 37 37 35 34 33 33 33 34 35 36 35 34 33 32 32 34 34 33 34 33 33 33 33 32 30 30 30 30 30 30 29 28 27 26 25 25 24 23 22 21 21 21 20 20 20 20 21 22 23 23 21 20
45 44 44 44 43 42 40 39 39 38 38 38 38 37 36 35 35 35 36 37 37 37 36 35 34 34 35 35 35 35 36 36 36 36 34 32 31 32 32 32 31 30 30 29 28 28 27 26 25 24 24 24 23 22 21 21 21 22 22 22 21 20 19
47 47 46 45 44 42 40 40 41 40 39 39 39 39 38 37 36 37 37 38 38 38 39 38 37 36 36 36 37 37 37 38 38 38 36 35 33 33 33 34 34 33 32 31 31 30 29 28 27 26 26 26 24 23 23 22 22 23 22 21 19 17 18
51 50 49 46 44 42 41 41 42 41 40 40 40 40 39 38 38 38 38 38 39 40 40 40 40 39 38 38 39 39 38 38 38 38 38 36 35 35 35 36 36 36 35 34 34 33 31 30 29 29 29 27 26 25 24 24 24 23 22 20 18 17 18
53 52 50 47 45 44 43 43 44 43 42 41 41 41 40 39 39 40 39 40 40 41 42 42 42 42 41 41 41 40 38 37 37 37 38 38 38 38 38 38 38 37 37 37 36 35 33 32 32 32 31 29 28 27 27 26 25 24 22 20 18 18 19
53 53 51 49 48 47 46 46 46 45 44 43 42 42 41 40 41 41 41 42 42 43 43 44 44 44 43 43 43 41 38 37 36 36 38 39 40 40 40 40 40 39 39 39 38 37 36 35 35 34 33 31 30 30 29 27 26 24 22 20 20 20 21
54 54 53 52 51 50 49 48 47 45 45 44 44 42 42 41 42 42 42 43 44 44 44 44 45 45 45 45 44 41 39 38 37 36 37 38 40 41 41 42 42 42 41 41 40 40 39 39 38 37 35 33 33 32 31 28 26 25 23 22 23 23 23
56 56 55 54 52 51 50 48 47 46 46 46 45 43 43 43 43 43 43 45 45 45 45 45 46 46 47 46 44 42 41 40 38 37 37 37 38 39 40 42 43 44 44 43 42 41 41 41 40 38 36 35 34 32 30 28 26 25 25 24 25 26 26
58 57 56 55 53 52 50 49 47 47 48 48 46 45 45 44 44 44 45 46 46 46 46 46 46 47 47 45 45 44 44 42 41 40 38 37 37 36 38 41 43 45 45 45 44 43 43 43 41 39 36 34 32 31 29 27 27 26 26 27 27 28 29
59 57 56 55 54 52 51 49 48 49 49 48 47 47 46 45 45 46 46 46 45 46 46 46 46 47 46 46 46 46 46 44 43 42 40 38 37 36 37 39 41 43 44 44 45 45 45 44 42 39 36 32 31 30 28 27 27 27 28 29 29 30 30
59 58 57 56 54 53 51 50 50 49 49 48 48 48 46 45 45 44 44 44 44 45 46 46 46 46 45 46 46 47 47 45 44 43 41 39 38 38 38 38 39 40 41 42 44 45 46 45 44 41 36 33 31 30 29 28 28 29 30 30 31 32 32
60 59 58 56 55 54 53 52 51 51 50 49 49 48 45 44 44 43 43 43 42 43 45 45 46 46 46 46 47 47 47 46 45 43 41 40 39 39 39 38 38 38 38 39 41 43 45 46 45 43 38 34 32 31 30 29 29 30 32 32 32 33 33
60 59 59 58 57 55 54 53 52 51 50 50 49 47 45 44 43 43 43 42 42 43 44 45 46 47 47 48 48 48 47 46 45 43 42 41 40 40 39 38 37 36 36 38 39 41 43 44 45 44 40 36 34 33 32 30 30 32 34 34 34 35 34
59 59 59 59 57 56 54 52 51 51 50 49 48 46 45 44 43 43 42 42 42 43 44 46 47 48 48 49 49 49 48 46 45 44 42 41 40 40 39 37 36 35 35 36 38 39 40 42 44 44 42 39 37 35 34 32 32 34 35 35 35 36 36
58 58 58 59 57 55 53 52 51 51 50 49 47 46 45 44 43 42 42 42 42 43 44 47 48 49 49 50 50 49 48 47 46 45 43 42 41 41 39 37 36 35 35 36 36 37 38 40 42 44 44 42 40 38 37 35 34 36 37 37 37 37 37
59 58 58 58 57 55 52 51 51 51 50 49 48 47 45 44 42 41 42 44 44 44 46 48 49 49 50 49 50 49 49 48 47 46 44 42 41 41 39 37 36 36 35 36 36 36 37 39 41 43 44 44 43 41 40 38 36 37 38 38 38 38 37
60 58 58 58 57 54 52 51 51 51 50 49 48 47 45 43 42 41 43 44 45 46 47 47 48 49 49 50 50 50 50 49 48 47 45 43 42 42 41 39 37 37 36 36 36 36 37 38 40 42 43 44 45 44 43 41 39 38 38 39 39 38 38
61 59 58 58 57 55 53 51 51 51 51 50 49 47 45 43 42 42 43 44 45 46 46 45 46 47 49 50 50 51 51 50 49 47 45 43 43 44 43 41 40 38 37 36 36 36 37 38 39 41 43 44 45 45 44 43 41 39 39 39 39 39 39
63 61 59 58 58 57 54 52 52 52 51 50 49 47 46 45 43 43 43 44 45 44 44 44 45 45 47 48 50 51 51 50 49 47 46 45 45 45 45 43 42 40 38 37 37 37 38 39 40 41 42 43 44 45 44 43 41 40 39 39 39 39 39
65 63 62 60 59 58 56 54 53 52 51 51 50 48 47 46 45 44 44 44 44 43 43 43 44 44 46 47 49 49 49 49 49 48 47 47 47 47 46 45 43 42 40 39 39 39 39 39 40 41 41 42 43 43 42 41 40 39 38 39 39 39 40
67 64 63 62 61 59 58 56 55 54 52 51 50 49 48 47 46 45 45 44 44 42 42 42 43 43 45 46 47 48 48 49 49 49 49 50 50 50 49 47 45 44 42 41 41 41 41 40 40 40 40 40 40 40 39 39 39 39 39 39 39 39 40
68 66 64 64 62 61 59 58 56 55 53 52 51 50 49 48 47 46 46 45 44 43 42 42 41 42 43 45 45 46 47 48 50 51 52 52 53 52 51 49 48 46 45 43 43 42 42 41 40 39 39 39 39 39 38 39 39 39 39 39 39 40 40
70 67 65 65 64 63 61 59 58 56 55 53 52 51 51 50 48 47 46 46 45 44 44 43 42 42 42 44 45 45 47 48 50 52 54 55 55 55 53 52 50 49 48 46 45 44 43 42 42 41 41 41 40 40 39 40 40 40 40 40 40 41 41
70 69 67 65 65 64 63 61 59 58 56 54 53 52 51 50 49 48 47 47 46 44 43 43 43 42 42 43 43 45 46 48 50 52 54 55 56 56 55 53 52 51 50 48 47 46 45 45 44 43 43 42 41 41 41 42 42 42 42 42 42 43 43
71 70 68 66 65 65 64 62 61 60 58 56 54 53 52 51 50 48 47 47 45 44 43 42 42 42 42 42 43 44 45 47 49 50 51 52 54 55 55 54 53 52 52 51 49 48 48 48 47 46 45 44 43 43 44 44 44 44 44 44 45 45 45
72 71 70 67 66 65 64 63 62 61 59 57 55 54 53 51 50 48 47 46 46 46 45 44 43 43 42 42 43 44 45 47 48 50 50 51 52 54 55 55 55 54 54 53 52 51 51 50 50 48 47 47 46 46 46 46 46 46 47 47 47 47 47
72 71 70 68 66 65 65 64 63 62 60 59 57 56 55 53 51 49 48 47 47 47 46 45 44 43 43 42 43 43 44 45 47 49 50 51 52 53 54 55 55 55 55 55 54 54 53 53 52 51 50 49 49 49 49 49 49 49 49 49 49 49 49
73 71 70 68 66 65 65 64 64 63 62 61 59 58 57 55 52 51 50 49 49 48 46 45 45 44 43 43 42 42 42 43 45 47 49 51 52 53 54 54 54 55 55 55 55 55 55 55 54 53 52 52 52 51 51 51 50 50 50 50 50 50 51
Wind_Direction
238 240 239 237 238 236 234 237 239 238 238 241 244 243 236 229 227 228 229 230 226 221 221 225 229 232 231 229 228 229 232 232 227 224 223 224 227 229 231 234 239 247 254 259 258 254 250 250 250 252 254 258 265 279 294 309 321 328 334 338 340 340 340
229 234 236 236 236 237 236 235 237 237 238 239 242 245 243 235 229 227 229 231 232 231 228 225 225 229 234 234 232 232 233 234 231 227 226 227 229 230 231 233 236 240 248 254 256 253 249 247 248 251 253 255 260 269 283 298 310 320 326 331 333 334 334
225 229 233 235 235 235 236 236 235 236 239 239 239 243 245 241 234 228 227 229 232 235 235 231 225 224 230 235 236 236 237 237 234 231 231 231 230 229 230 233 235 238 244 249 251 251 249 247 246 248 252 254 258 265 277 292 305 314 320 324 326 328 329
227 229 234 237 237 235 237 238 234 232 237 239 239 240 242 243 241 233 228 226 228 231 235 236 231 225 228 233 237 240 242 241 238 235 234 233 231 231 232 234 236 238 242 246 248 248 248 248 248 249 251 255 259 266 277 289 300 309 315 319 321 323 325
229 231 234 237 237 236 237 238 234 231 235 238 240 240 241 243 244 241 236 230 228 229 232 236 236 232 230 233 236 240 244 245 243 239 237 236 235 236 237 238 237 239 242 246 247 246 246 248 249 250 252 255 260 268 278 288 297 304 310 314 316 319 321
230 231 233 235 236 236 237 239 238 235 235 238 240 242 242 243 243 244 242 237 233 231 232 234 236 234 231 231 233 238 242 244 244 243 242 242 242 242 241 240 239 240 243 245 247 247 246 247 249 251 253 257 264 272 280 288 295 301 305 308 312 315 318
230 230 232 234 236 236 238 240 241 240 239 238 240 242 243 244 244 244 243 241 237 232 231 234 236 238 236 233 232 235 239 242 244 246 246 247 248 247 244 242 242 242 243 245 246 246 247 248 250 252 255 259 267 275 282 288 293 298 302 305 309 313 315
230 229 230 233 234 235 237 240 242 243 242 241 241 243 246 248 247 246 245 245 242 236 233 234 237 240 241 239 236 237 240 242 244 246 248 249 250 249 247 245 244 244 245 246 246 245 246 248 251 253 256 261 267 274 280 286 291 296 301 305 309 312 314
231 229 229 231 233 234 237 240 242 244 245 245 246 248 249 250 250 249 248 247 245 242 239 237 238 240 242 241 240 240 241 244 246 248 249 250 250 249 248 247 246 247 248 248 246 245 246 248 250 254 257 261 266 271 277 284 291 297 302 306 309 311 312
234 232 230 231 234 235 237 241 244 246 247 248 249 250 251 251 252 252 250 248 246 245 243 241 241 242 241 241 241 241 240 241 244 246 247 248 249 250 250 249 248 249 249 249 248 246 246 248 251 254 258 261 265 270 277 285 292 299 303 306 308 310 311
236 234 232 232 234 236 238 240 242 244 246 248 250 251 251 252 253 253 251 250 249 248 246 243 242 242 241 240 240 240 239 238 239 241 242 244 247 249 251 251 251 251 250 250 249 248 248 249 252 256 259 262 266 272 278 286 294 300 303 305 307 309 310
236 235 235 234 235 237 239 241 243 244 246 249 251 253 253 253 253 253 252 252 251 249 247 245 242 241 242 241 239 239 240 239 239 240 241 241 243 247 250 251 252 252 251 250 250 248 249 250 253 257 259 263 268 273 279 287 294 298 301 302 304 307 309
235 235 235 236 237 239 241 244 245 246 247 249 252 254 256 256 255 254 253 252 251 249 247 246 243 242 241 241 240 239 240 241 241 242 244 242 241 244 248 251 253 253 252 251 250 249 250 251 253 256 259 263 268 274 280 286 292 297 299 298 300 302 304
236 236 236 238 240 241 243 245 248 249 249 251 253 255 257 258 257 256 254 252 251 249 247 246 244 243 242 241 241 240 240 241 243 245 246 245 242 241 244 247 250 251 252 252 252 251 252 253 254 256 259 263 268 273 278 283 289 294 295 294 295 296 297
239 240 240 241 242 242 243 245 248 250 252 253 255 256 258 258 257 256 254 252 249 247 246 245 243 243 243 242 241 241 241 242 244 246 247 247 244 242 242 244 246 248 251 252 253 254 254 254 254 256 259 263 267 271 275 280 285 289 289 289 290 291 293
241 243 243 243 244 244 245 247 249 252 254 256 257 258 259 258 256 254 253 251 249 247 245 244 243 242 242 242 243 243 243 243 243 245 246 246 245 245 246 246 246 246 248 250 252 254 254 254 255 256 259 262 266 270 273 277 281 284 283 285 288 289 291
240 243 245 245 246 247 248 250 252 254 256 257 258 259 259 258 256 254 252 251 250 248 246 244 244 243 242 243 244 244 244 242 241 243 245 246 247 248 249 250 249 248 247 247 249 251 252 254 255 256 259 262 265 268 271 274 277 278 279 282 287 288 290
241 243 246 247 248 249 251 252 254 255 256 257 258 258 258 256 254 253 251 250 249 249 247 245 243 243 243 243 244 244 244 242 242 242 244 247 249 250 251 252 251 250 249 248 248 249 250 252 253 255 258 260 264 267 269 270 271 273 276 281 285 288 290
241 243 245 247 249 250 251 252 253 254 255 257 257 257 255 253 251 249 249 249 249 249 248 246 244 243 243 243 243 243 243 243 244 245 246 249 251 253 255 254 253 252 251 251 250 250 250 251 252 253 255 257 262 264 265 265 266 270 274 279 284 287 288
241 243 245 247 249 250 252 253 254 255 256 258 257 256 254 252 250 249 249 250 249 249 249 248 246 244 243 243 243 243 243 244 245 246 247 249 252 254 255 255 255 254 253 253 252 252 252 252 252 252 252 254 258 260 260 261 263 268 273 278 283 287 287
242 243 244 246 247 248 250 251 253 254 255 256 255 255 254 252 251 251 251 251 250 250 249 249 248 246 244 243 243 243 244 244 245 246 248 249 251 253 255 255 255 254 254 253 253 253 253 253 253 252 251 252 255 257 258 258 261 266 271 277 282 285 285
241 242 243 244 245 246 247 249 250 252 252 252 252 252 251 250 249 250 250 249 249 248 248 248 247 246 244 243 243 243 243 244 245 247 248 249 250 252 254 254 254 253 253 253 253 253 253 253 253 252 251 251 253 255 256 257 261 266 271 276 280 282 282
239 241 242 243 244 245 246 248 250 251 251 250 250 249 248 247 247 248 248 248 247 246 246 246 245 244 243 242 242 242 243 244 244 246 247 248 249 251 253 253 253 252 252 252 252 253 253 253 253 252 250 249 251 253 254 256 260 266 271 275 279 280 280
237 239 242 243 244 245 246 247 248 248 248 248 247 247 246 246 245 246 246 247 246 244 244 243 243 242 241 241 241 242 242 243 244 244 245 246 248 250 251 253 253 252 251 251 252 253 253 253 252 251 249 248 250 252 254 255 259 265 270 274 277 278 278
236 238 241 243 244 244 245 245 245 246 246 246 246 246 246 246 245 245 245 245 245 243 242 241 241 240 240 240 241 241 242 242 243 243 244 245 246 248 250 252 253 252 250 250 251 252 252 253 252 250 249 249 250 252 254 255 259 264 269 272 275 275 276
234 236 239 242 243 243 243 244 244 244 244 245 245 246 247 247 247 246 245 245 244 243 241 240 239 239 239 240 240 240 241 241 242 242 243 244 245 247 249 251 252 250 249 248 248 249 250 251 251 250 249 249 250 252 254 256 258 262 267 271 272 273 274
232 234 237 240 242 242 242 242 242 243 244 245 245 247 248 249 248 247 246 246 246 244 243 242 241 241 240 240 239 239 239 240 240 241 242 243 245 246 248 249 249 248 247 247 247 247 248 249 250 249 249 249 250 251 254 256 258 261 265 268 269 271 272
231 232 234 237 240 241 240 240 241 242 243 244 246 247 249 249 249 248 247 247 246 246 245 244 242 241 240 240 239 239 239 239 239 240 241 242 244 245 246 247 247 247 246 247 247 247 247 248 248 248 248 248 250 252 254 256 258 260 262 265 267 269 271
231 231 232 234 237 239 239 239 240 241 242 244 246 248 249 250 249 248 248 247 247 246 245 244 242 240 239 240 240 239 239 239 239 239 240 241 243 244 244 245 245 245 245 246 247 247 246 246 247 247 248 248 249 251 254 256 258 260 261 263 265 268 270
232 231 232 233 235 237 237 238 239 240 242 244 245 247 249 250 249 248 247 247 247 247 246 246 243 240 238 238 238 239 239 239 238 238 239 240 241 242 242 243 243 244 244 245 246 246 246 246 246 246 247 248 250 252 254 256 258 259 260 262 264 267 269
232 232 232 233 234 235 236 237 238 239 241 243 245 246 248 248 248 247 246 246 247 246 246 245 245 242 239 238 238 238 238 237 237 237 237 238 238 239 240 241 242 242 243 244 245 246 247 247 248 248 248 249 250 252 254 255 257 258 260 262 264 266 269
232 232 233 233 234 235 236 236 237 238 239 241 243 245 246 246 246 246 246 246 246 246 245 244 243 241 240 239 239 238 238 236 235 235 235 236 237 238 239 240 241 242 242 243 245 247 248 249 249 249 249 250 250 252 253 255 257 258 259 261 263 266 270
233 233 233 234 235 236 236 236 237 237 238 239 242 244 245 245 245 245 245 245 245 245 245 244 243 242 242 242 241 240 238 237 236 235 235 235 236 238 239 240 241 242 244 245 246 247 249 249 249 248 249 250 250 251 253 254 256 258 259 262 264 267 269
233 233 233 233 234 236 236 236 237 237 237 238 239 241 242 243 243 243 243 244 243 244 244 244 244 243 243 243 242 241 240 239 238 238 238 238 239 240 241 242 243 244 245 247 247 248 248 248 248 249 249 251 252 253 254 255 257 259 261 263 265 266 268
232 233 233 233 234 236 237 237 238 238 238 238 238 239 240 240 241 241 241 242 242 241 243 244 244 244 243 243 242 241 240 239 239 239 240 240 241 242 243 244 245 245 246 247 247 247 248 248 249 250 251 252 254 255 256 257 258 260 262 263 264 265 266
231 233 234 233 234 235 236 237 238 238 238 238 238 239 239 238 238 238 239 239 239 240 241 243 244 244 243 243 243 242 241 240 239 239 239 239 240 241 242 243 244 245 246 247 247 248 249 250 251 251 252 254 255 256 257 258 259 260 261 262 263 265 267
229 232 234 234 234 235 236 237 238 238 238 238 237 238 239 238 237 237 237 237 238 239 240 241 242 242 242 242 242 242 242 241 241 240 239 239 238 239 240 241 243 244 246 247 248 248 250 251 252 253 254 255 256 257 258 259 260 261 262 263 265 266 267
227 230 232 233 233 234 236 237 238 238 239 238 237 237 239 239 238 237 236 236 237 238 240 241 241 242 242 242 242 242 242 241 241 241 241 240 240 239 240 241 242 243 245 246 247 248 250 251 252 253 254 255 256 257 258 259 260 261 262 264 265 265 266
Height
10961 10963 10965 10967 10969 10971 10973 10974 10975 10976 10977 10978 10980 10980 10981 10982 10982 10983 10984 10986 10987 10988 10990 10991 10993 10995 10997 10998 10999 11000 11000 11002 11003 11004 11005 11005 11006 11007 11008 11008 11009 11010 11011 11011 11012 11013 11013 11014 11015 11015 11016 11016 11016 11016 11016 11016 11015 11015 11015 11014 11014 11013 11012
10958 10959 10961 10964 10966 10968 10970 10972 10973 10974 10975 10977 10978 10979 10979 10980 10981 10982 10983 10984 10986 10987 10988 10990 10991 10993 10995 10997 10997 10998 10999 11000 11002 11003 11003 11004 11005 11006 11006 11007 11008 11008 11009 11010 11011 11012 11012 11013 11014 11014 11015 11016 11016 11016 11015 11015 11015 11014 11014 11014 11013 11013 11012
10953 10955 10957 10959 10963 10965 10967 10969 10971 10972 10973 10975 10976 10977 10977 10978 10979 10980 10981 10982 10984 10985 10987 10988 10989 10991 10993 10994 10995 10996 10997 10998 11000 11001 11002 11003 11003 11004 11005 11005 11006 11007 11007 11008 11009 11010 11011 11012 11012 11013 11014 11014 11015 11015 11015 11015 11014 11014 11013 11013 11013 11012 11011
10949 10951 10953 10955 10959 10962 10964 10966 10968 10970 10970 10971 10973 10974 10975 10975 10976 10977 10979 10980 10982 10983 10984 10985 10987 10989 10990 10992 10993 10994 10995 10997 10999 11000 11001 11001 11001 11002 11003 11004 11005 11005 11006 11007 11008 11009 11010 11010 11011 11012 11012 11013 11013 11013 11014 11014 11014 11013 11013 11012 11012 11011 11010
10946 10948 10950 10952 10955 10958 10960 10962 10964 10966 10967 10968 10970 10972 10973 10973 10974 10975 10976 10978 10979 10981 10982 10983 10985 10987 10988 10989 10991 10992 10993 10995 10997 10998 10999 10999 11000 11000 11001 11002 11003 11004 11004 11005 11006 11007 11008 11008 11009 11010 11011 11011 11012 11012 11012 11013 11013 11013 11012 11012 11011 11011 11010
10943 10945 10947 10948 10950 10953 10955 10957 10960 10962 10964 10965 10967 10968 10970 10971 10972 10972 10973 10975 10977 10979 10980 10981 10982 10983 10985 10986 10988 10990 10991 10992 10995 10996 10997 10998 10998 10999 11000 11000 11001 11001 11002 11003 11004 11005 11006 11007 11008 11008 11009 11009 11010 11011 11011 11011 11011 11011 11011 11011 11011 11010 11009
10939 10941 10943 10944 10946 10949 10951 10953 10956 10958 10960 10962 10964 10965 10966 10967 10969 10970 10971 10972 10974 10976 10977 10978 10978 10980 10982 10984 10985 10987 10988 10990 10992 10994 10995 10996 10997 10998 10998 10998 10999 10999 11000 11001 11002 11003 11004 11005 11006 11007 11007 11008 11009 11009 11010 11010 11010 11010 11010 11010 11010 11009 11008
10935 10937 10939 10941 10942 10945 10947 10949 10952 10954 10957 10959 10959 10961 10963 10964 10966 10966 10968 10969 10971 10972 10974 10975 10976 10977 10979 10982 10983 10984 10986 10988 10990 10992 10993 10994 10995 10996 10996 10996 10997 10997 10998 10999 11000 11001 11002 11003 11004 11005 11005 11006 11007 11008 11008 11009 11009 11009 11009 11008 11008 11007 11007
10930 10933 10935 10937 10938 10941 10943 10945 10948 10951 10954 10955 10955 10957 10960 10961 10962 10963 10965 10967 10968 10969 10970 10972 10973 10974 10977 10980 10981 10982 10984 10986 10987 10989 10990 10991 10993 10993 10994 10994 10995 10995 10996 10997 10998 10999 11000 11002 11003 11003 11004 11005 11005 11006 11007 11007 11007 11007 11007 11006 11006 11005 11005
10925 10929 10931 10933 10934 10937 10940 10942 10945 10948 10950 10950 10951 10954 10956 10957 10958 10960 10961 10963 10964 10965 10967 10969 10971 10972 10974 10976 10979 10981 10982 10983 10984 10985 10987 10989 10990 10991 10991 10992 10993 10994 10995 10996 10997 10998 10999 11000 11001 11001 11002 11003 11004 11004 11005 11005 11005 11005 11004 11004 11004 11004 11003
10920 10923 10926 10928 10930 10933 10936 10939 10942 10944 10945 10946 10947 10949 10952 10953 10955 10956 10957 10958 10960 10962 10964 10966 10968 10969 10971 10973 10976 10977 10978 10979 10980 10981 10983 10985 10987 10988 10989 10989 10990 10992 10993 10994 10995 10996 10996 10997 10998 10999 11000 11001 11001 11002 11003 11003 11003 11003 11003 11002 11001 11001 11001
10914 10917 10920 10924 10926 10929 10932 10935 10937 10939 10941 10941 10942 10945 10947 10949 10951 10952 10953 10955 10956 10958 10960 10962 10964 10965 10967 10969 10972 10973 10975 10976 10976 10977 10979 10982 10984 10985 10986 10986 10987 10989 10990 10991 10992 10993 10994 10995 10996 10997 10997 10998 10999 11000 11000 11001 11001 11001 11001 11001 11000 10999 10999
10908 10911 10915 10918 10922 10925 10928 10930 10932 10935 10937 10937 10938 10940 10942 10944 10946 10947 10949 10951 10953 10954 10956 10957 10959 10961 10963 10965 10967 10969 10971 10972 10973 10974 10976 10978 10981 10982 10983 10983 10984 10986 10987 10988 10990 10990 10991 10993 10994 10994 10995 10995 10996 10997 10998 10998 10999 10999 11000 10999 10999 10998 10997
10901 10905 10910 10914 10918 10922 10924 10925 10927 10929 10932 10933 10934 10936 10938 10939 10941 10943 10945 10947 10949 10950 10952 10953 10955 10957 10959 10961 10963 10965 10967 10969 10970 10972 10974 10975 10977 10979 10979 10980 10981 10982 10984 10985 10986 10987 10989 10990 10991 10992 10992 10993 10994 10994 10995 10996 10997 10997 10997 10997 10997 10997 10996
10897 10901 10906 10911 10914 10917 10919 10920 10922 10924 10926 10928 10930 10932 10933 10934 10936 10938 10940 10942 10944 10945 10947 10949 10950 10952 10954 10956 10958 10960 10963 10966 10968 10969 10971 10972 10973 10974 10975 10976 10977 10979 10980 10981 10983 10985 10986 10987 10988 10988 10989 10990 10991 10992 10993 10994 10994 10995 10995 10995 10995 10994 10994
10893 10896 10901 10907 10909 10912 10914 10916 10918 10920 10922 10923 10925 10927 10929 10930 10931 10932 10934 10936 10938 10940 10942 10944 10946 10947 10949 10951 10953 10956 10960 10963 10964 10966 10967 10968 10969 10969 10971 10972 10974 10975 10977 10978 10979 10981 10982 10984 10984 10985 10986 10988 10988 10989 10990 10991 10991 10991 10991 10991 10991 10991 10991
10888 10891 10895 10900 10903 10906 10909 10912 10914 10916 10917 10918 10920 10923 10924 10925 10926 10927 10929 10931 10932 10935 10937 10939 10941 10943 10944 10946 10949 10953 10956 10958 10960 10961 10963 10964 10964 10965 10967 10968 10969 10971 10972 10974 10976 10977 10978 10979 10980 10982 10983 10984 10985 10985 10986 10987 10988 10988 10987 10988 10988 10988 10988
10883 10886 10889 10892 10897 10901 10904 10907 10910 10912 10912 10913 10915 10918 10919 10921 10922 10923 10924 10925 10927 10930 10932 10934 10936 10938 10940 10943 10946 10949 10950 10953 10955 10957 10958 10959 10961 10962 10963 10964 10965 10966 10968 10969 10971 10973 10974 10975 10976 10978 10980 10981 10981 10982 10983 10984 10984 10984 10984 10984 10984 10984 10984
10877 10881 10884 10887 10891 10895 10898 10902 10904 10905 10906 10907 10910 10912 10914 10916 10917 10918 10918 10919 10922 10925 10926 10929 10931 10932 10935 10939 10942 10943 10945 10948 10950 10951 10953 10955 10957 10958 10959 10960 10961 10962 10963 10965 10967 10968 10969 10970 10972 10974 10976 10977 10977 10978 10979 10979 10980 10980 10980 10980 10980 10980 10980
10872 10876 10879 10882 10886 10889 10892 10896 10898 10899 10901 10902 10904 10906 10909 10911 10912 10913 10914 10916 10918 10920 10921 10924 10926 10928 10931 10934 10937 10938 10940 10943 10945 10946 10949 10951 10953 10955 10955 10955 10956 10957 10959 10961 10962 10963 10964 10965 10968 10969 10971 10973 10973 10974 10974 10975 10976 10977 10977 10977 10977 10976 10975
10867 10870 10874 10878 10881 10884 10887 10890 10892 10894 10896 10897 10898 10900 10903 10906 10907 10910 10911 10912 10914 10915 10917 10919 10921 10924 10927 10930 10932 10934 10936 10938 10940 10942 10945 10947 10949 10950 10950 10951 10952 10953 10955 10956 10957 10958 10959 10961 10963 10965 10967 10969 10969 10970 10970 10971 10973 10973 10973 10973 10973 10972 10971
10861 10864 10868 10871 10875 10878 10881 10884 10886 10889 10890 10892 10893 10895 10898 10900 10902 10904 10906 10907 10909 10910 10912 10914 10916 10919 10922 10924 10926 10928 10930 10933 10935 10938 10940 10942 10944 10945 10945 10946 10948 10949 10950 10951 10952 10953 10955 10956 10958 10960 10963 10964 10965 10965 10966 10967 10969 10969 10968 10969 10969 10968 10967
10855 10858 10861 10864 10869 10872 10875 10878 10881 10883 10885 10886 10888 10890 10893 10895 10897 10898 10900 10902 10904 10905 10907 10909 10910 10913 10916 10918 10920 10923 10925 10928 10931 10933 10936 10937 10939 10940 10941 10942 10943 10944 10945 10946 10947 10948 10950 10952 10954 10956 10958 10960 10960 10960 10962 10963 10965 10964 10964 10965 10964 10963 10963
10849 10852 10854 10858 10862 10866 10870 10873 10875 10876 10878 10880 10882 10885 10887 10889 10891 10893 10895 10897 10898 10900 10902 10903 10905 10907 10910 10912 10914 10917 10920 10923 10926 10928 10931 10932 10934 10935 10936 10937 10938 10939 10940 10941 10942 10943 10945 10947 10949 10951 10953 10954 10955 10956 10957 10959 10960 10960 10960 10960 10960 10959 10958
10843 10846 10848 10851 10855 10859 10864 10867 10868 10870 10872 10874 10876 10878 10880 10883 10886 10888 10890 10891 10893 10895 10896 10897 10898 10901 10904 10906 10909 10912 10915 10918 10921 10923 10926 10928 10929 10931 10932 10933 10934 10935 10935 10936 10937 10938 10940 10942 10943 10945 10947 10949 10951 10952 10953 10954 10956 10955 10955 10955 10955 10954 10954
10836 10840 10842 10844 10848 10854 10858 10861 10863 10864 10866 10868 10870 10872 10875 10878 10881 10883 10884 10885 10887 10889 10889 10890 10893 10895 10898 10902 10904 10907 10910 10912 10915 10918 10921 10923 10925 10926 10927 10928 10929 10930 10930 10931 10932 10933 10935 10936 10938 10940 10942 10944 10945 10947 10947 10949 10951 10951 10950 10950 10950 10949 10949
10829 10833 10836 10838 10842 10847 10852 10855 10857 10859 10860 10863 10865 10867 10870 10872 10875 10877 10878 10879 10881 10882 10883 10885 10888 10891 10894 10896 10899 10901 10903 10906 10909 10912 10916 10918 10920 10922 10922 10923 10924 10924 10925 10926 10927 10928 10929 10931 10932 10934 10936 10938 10939 10941 10942 10943 10945 10946 10946 10945 10944 10944 10944
10822 10826 10830 10833 10836 10840 10845 10849 10852 10853 10855 10857 10859 10862 10864 10867 10869 10871 10872 10874 10874 10875 10878 10881 10883 10886 10888 10890 10893 10895 10897 10900 10904 10907 10911 10913 10915 10916 10917 10918 10918 10919 10920 10921 10922 10923 10924 10926 10927 10928 10930 10932 10933 10934 10936 10938 10939 10941 10941 10940 10939 10939 10939
10814 10819 10823 10827 10830 10834 10839 10843 10846 10848 10850 10852 10854 10857 10859 10861 10864 10865 10867 10868 10868 10870 10873 10875 10877 10880 10883 10884 10886 10889 10891 10895 10898 10902 10905 10908 10910 10910 10911 10912 10913 10914 10915 10916 10916 10918 10919 10920 10922 10923 10925 10926 10928 10929 10931 10932 10934 10935 10936 10935 10935 10934 10934
10807 10812 10816 10820 10824 10827 10832 10836 10840 10842 10845 10847 10849 10851 10853 10856 10858 10860 10861 10862 10863 10865 10868 10869 10871 10874 10876 10878 10880 10883 10886 10890 10893 10897 10900 10902 10903 10904 10904 10906 10907 10908 10909 10911 10911 10912 10913 10915 10917 10918 10919 10921 10922 10924 10925 10927 10928 10929 10930 10930 10930 10930 10930
10799 10805 10809 10813 10817 10821 10826 10830 10833 10837 10839 10841 10843 10845 10848 10850 10852 10854 10856 10857 10859 10861 10863 10864 10866 10868 10870 10873 10875 10878 10881 10885 10888 10891 10893 10895 10896 10896 10897 10900 10902 10903 10904 10905 10906 10907 10908 10910 10912 10913 10915 10916 10918 10919 10921 10922 10923 10924 10924 10925 10925 10925 10925
10792 10798 10803 10807 10810 10814 10819 10823 10827 10830 10833 10836 10838 10840 10842 10844 10846 10849 10851 10853 10855 10856 10858 10860 10862 10863 10866 10868 10869 10872 10875 10878 10881 10884 10886 10888 10889 10889 10892 10894 10896 10897 10899 10900 10901 10902 10904 10906 10908 10909 10910 10911 10912 10914 10916 10916 10917 10918 10919 10920 10920 10921 10921
10785 10791 10796 10800 10803 10807 10812 10816 10820 10824 10827 10831 10833 10834 10836 10838 10841 10844 10845 10848 10850 10852 10854 10856 10858 10860 10861 10862 10864 10867 10870 10872 10874 10877 10879 10881 10882 10883 10886 10888 10890 10892 10893 10895 10896 10898 10899 10901 10902 10903 10905 10906 10907 10909 10910 10911 10911 10912 10913 10915 10916 10916 10916
10780 10785 10790 10794 10797 10800 10805 10809 10813 10817 10821 10825 10828 10830 10831 10833 10836 10838 10841 10843 10845 10847 10849 10851 10853 10855 10857 10858 10860 10862 10864 10866 10868 10870 10872 10875 10877 10878 10880 10882 10884 10887 10888 10890 10892 10893 10894 10895 10896 10898 10899 10901 10902 10904 10904 10905 10905 10907 10908 10909 10910 10910 10911
10775 10779 10783 10788 10791 10794 10798 10803 10807 10811 10815 10820 10823 10825 10827 10829 10831 10833 10836 10838 10840 10843 10844 10846 10849 10851 10852 10854 10855 10856 10858 10860 10862 10864 10866 10869 10871 10873 10875 10877 10879 10881 10883 10885 10886 10887 10888 10889 10891 10892 10894 10896 10897 10898 10898 10899 10900 10901 10902 10903 10903 10904 10905
10771 10773 10777 10782 10785 10788 10792 10796 10800 10804 10809 10813 10817 10819 10821 10824 10827 10829 10831 10833 10836 10838 10839 10842 10844 10846 10848 10849 10851 10852 10853 10855 10856 10858 10860 10862 10864 10867 10869 10871 10873 10875 10877 10879 10880 10881 10883 10884 10885 10887 10889 10890 10891 10892 10893 10893 10895 10896 10897 10897 10897 10898 10899
10766 10767 10771 10776 10780 10783 10786 10790 10793 10797 10801 10806 10810 10813 10816 10819 10822 10825 10827 10829 10830 10832 10834 10836 10838 10840 10842 10844 10845 10847 10849 10850 10851 10853 10854 10856 10858 10860 10862 10865 10867 10869 10871 10873 10874 10876 10877 10878 10880 10882 10884 10885 10886 10886 10887 10888 10890 10890 10891 10891 10892 10893 10892
10760 10762 10765 10769 10774 10778 10780 10783 10787 10790 10794 10799 10803 10807 10810 10814 10817 10820 10822 10823 10825 10826 10828 10830 10832 10834 10836 10838 10840 10841 10843 10845 10846 10847 10849 10851 10852 10854 10857 10859 10861 10863 10865 10867 10868 10870 10872 10873 10875 10877 10878 10879 10880 10880 10881 10883 10884 10884 10885 10886 10886 10886 10886